星链-36507(STARLINK-36507)

导读

STARLINK-36507是美国SpaceX星链卫星互联网项目的卫星,于2026年1月12日发射升空,归属星链低轨卫星星座。星链项目旨在为全球范围提供高速互联网服务,该卫星加入后将进一步完善星座网络覆盖,提升通信服务能力,推动全球互联网络建设,也成为美国低轨通信星座部署进程中的新组成部分。

基本信息
目录编号:
67409
目录名称:
STARLINK-36507
国际标识:
2026-005F
轨道中心:
EARTH
卫星名称:
星链-36507
卫星全名:
星链-36507(STARLINK-36507)
卫星状态:
在轨 (已飞行236 天)
发射日期:
2026-01-12 UTC
国别 :
美国 (US)
星等 :
--
轨道信息
数据来源 国际轨道数据
星历时间: 2026-09-05T13:45:46+0800
12小时前
查看轨道信息
半长轴: 6861.194km
偏心率: 0.0001461
轨道倾角: 43.001°
近地点辐角 267.004°
升交点赤经 304.218°
平近点角 93.064°
近地点: 482.054km
远地点: 484.06km
周期: 94.267分钟
每日圈数: 15.275774
详细信息
固有亮度:
5
最大亮度:
2.5
卫星平台:
Starlink V1.0
覆盖范围:
全球
运营商:
太空探索技术公司
运营商所在国:
美国
制造商(研发单位):
太空探索技术公司
制造商所在国:
美国
使用方式:
暂无
卫星简介
Starlink 计划是 SpaceX 推出的全球卫星互联网项目,通过发射低轨道卫星,为全球尤其是偏远地区提供高速、低延迟的互联网服务。自 2019 年起,Starlink 已部署数千颗卫星,旨在缩小全球数字鸿沟,推动互联网普及。该项目还为军事、航空等行业提供通信支持,带来广泛经济效益。
2D轨道图
3D轨道图
轨道高度分析图
轨道倾角分析图
轨道综合分析图
查看轨道综合分析图
交会数据列表
事件ID 空间交会对象 最接近时刻(TCA) 交会距离 交会风险概率(CRP) 交会风险指数(CRI) 操作
CDM_260907-210505-992306-740921
2026-09-07T
21:05:27+0000
0.609 km
远距离
8.267789E-5 中风险 0.73
CDM_260908-053105-929906-740921
2026-09-08T
05:31:54+0000
0.457 km
远距离
6.652566E-5 中风险 0.71
CDM_260907-223905-992306-740921
2026-09-07T
22:39:36+0000
1.363 km
极远距离
5.863641E-6 低风险 0.5
CDM_260907-193105-992306-740921
2026-09-07T
19:31:18+0000
2.187 km
极远距离
1.540826E-6 低风险 0.39
CDM_260908-035705-929906-740921
2026-09-08T
03:57:45+0000
1.792 km
极远距离
9.354398E-7 极低风险 0.34